RH
37 35 34 45 60 63 67 75 73 68 64 60 60 59 55 53 53 55 54 51 48 47 45 43 41 40 40 41 41 42 41 42 43 44 44 45 45 44 44 43 41 40 40 39 39 39 39 38 37 37 37 38 39 40 41 42 42 42 42 42 42 42 43 43 42 40 39 37 36 34 31 29 29 28 28 27 26 25 24 23 22 21 21 20 20
40 38 33 38 51 58 68 75 69 63 60 57 59 59 55 52 50 52 56 54 52 51 50 48 46 45 44 45 46 46 48 49 49 49 49 49 49 49 48 47 46 45 44 44 44 45 44 43 42 41 39 38 38 37 37 38 39 39 39 39 38 39 39 40 40 41 41 41 40 40 38 36 34 33 31 30 29 27 26 25 24 23 23 23 23
42 41 36 37 47 55 64 70 63 60 63 61 60 58 55 52 49 49 54 56 55 56 55 53 52 51 51 51 52 54 54 55 55 55 56 56 56 55 55 54 54 56 57 57 57 56 55 52 50 49 47 45 42 39 37 37 37 37 37 36 37 38 39 40 41 41 41 41 41 40 40 39 37 36 34 33 32 30 27 26 25 24 24 25 25
43 44 41 41 47 53 60 65 59 57 63 67 66 61 57 58 57 56 57 59 61 61 60 59 59 60 60 60 61 61 60 59 59 60 62 62 61 61 60 61 62 64 67 68 66 64 62 61 59 56 54 52 48 44 41 39 38 38 38 39 40 41 42 42 41 41 40 40 39 39 38 38 38 38 37 36 34 33 31 29 27 25 24 23 23
47 48 47 47 48 49 53 60 58 55 62 70 70 62 58 61 64 64 64 64 67 68 69 69 69 69 69 68 69 68 67 65 65 66 68 66 64 63 63 64 64 66 68 71 70 67 65 65 66 63 59 56 55 52 49 46 44 42 41 41 41 40 40 39 39 39 38 37 36 35 34 32 32 34 36 37 35 34 33 32 31 29 27 24 21
53 52 53 52 51 49 51 55 58 57 60 64 67 62 58 60 66 71 72 71 72 74 77 77 76 75 73 74 75 76 76 75 74 74 74 69 65 65 67 67 67 66 67 70 72 70 66 65 67 68 65 63 62 60 56 54 51 50 47 45 43 41 40 40 40 40 39 39 38 35 33 31 29 27 28 30 30 30 30 30 32 33 32 30 26
55 54 54 54 52 51 53 55 57 58 59 61 65 66 64 63 64 69 70 69 71 74 78 80 82 82 79 78 82 84 83 83 82 80 78 74 69 69 70 70 68 67 67 69 70 71 69 66 66 69 71 70 68 66 63 60 57 55 54 53 50 47 46 45 45 44 43 43 43 40 37 35 31 27 25 24 24 24 26 28 31 33 34 34 32
54 54 54 54 54 53 53 56 57 60 64 66 68 71 70 68 69 70 69 70 70 71 74 80 85 87 85 84 88 89 87 86 85 82 80 79 76 74 72 72 70 67 66 66 67 68 69 67 65 65 67 68 68 67 65 65 63 61 60 58 56 52 51 51 50 50 49 48 47 45 43 41 37 32 29 28 27 25 25 26 28 30 32 34 34
53 52 51 54 58 57 55 55 57 62 69 72 72 73 73 74 78 79 77 75 71 70 74 81 86 89 88 88 88 86 84 85 85 84 83 81 80 78 75 72 70 66 63 63 64 66 68 69 67 65 64 64 64 63 63 64 66 65 64 63 61 59 57 56 55 55 55 54 53 51 49 47 44 40 36 35 34 33 30 27 26 27 29 32 33
47 47 48 52 57 58 57 57 59 64 70 73 74 75 76 77 81 84 82 78 75 75 79 83 84 83 84 85 85 82 79 81 83 83 82 80 78 77 74 69 65 62 60 59 59 60 62 65 67 68 67 66 65 64 62 61 63 64 64 64 63 61 59 58 57 59 59 58 56 54 53 52 51 47 44 40 39 39 36 33 30 27 27 28 32
46 45 47 53 57 58 58 58 60 64 66 68 69 69 71 74 74 75 74 71 70 70 71 73 76 77 77 79 79 76 75 76 78 78 76 75 72 70 66 62 60 58 56 55 55 55 57 58 61 62 64 65 65 64 61 57 56 57 59 60 59 57 57 57 57 58 58 55 54 55 55 54 52 50 47 45 44 44 41 36 33 30 27 26 28
47 47 50 56 60 59 57 55 57 61 62 66 72 73 73 72 67 62 59 59 60 61 60 62 67 71 74 75 74 72 71 71 72 72 70 68 65 61 57 55 53 52 51 50 51 51 52 53 54 55 56 57 57 57 54 50 48 50 52 55 55 55 56 57 57 58 57 54 55 56 56 55 53 51 49 47 46 44 40 36 33 31 28 26 25
45 46 48 55 61 61 58 55 54 59 63 66 72 78 79 75 67 61 59 58 57 57 56 54 53 57 64 66 65 63 63 64 66 66 64 62 58 55 50 47 44 41 41 41 42 43 44 44 46 48 50 51 51 50 48 45 44 45 48 50 52 53 56 56 57 58 56 54 56 58 56 53 50 46 44 42 40 38 36 34 34 32 29 27 25
50 50 49 53 58 61 62 60 58 61 64 62 64 73 80 77 71 68 67 63 58 54 53 51 49 52 58 58 57 55 56 58 60 59 57 54 52 47 43 38 35 32 31 31 32 34 37 39 41 43 45 46 46 46 44 41 40 40 41 43 46 48 49 51 54 55 53 54 57 57 53 49 45 41 39 37 36 36 35 34 34 32 30 28 28
52 53 51 52 54 56 59 61 62 63 63 59 59 66 73 72 70 68 66 61 57 55 53 53 54 57 58 56 55 55 55 56 55 52 49 46 44 41 37 34 31 29 27 26 26 26 27 29 33 36 38 40 41 40 39 36 35 34 34 35 38 39 41 44 46 46 46 47 49 48 45 44 41 39 37 36 36 36 36 35 33 31 29 29 29
48 50 54 55 55 56 55 58 61 63 63 61 60 62 65 65 64 64 63 59 56 56 55 55 57 59 57 55 55 55 53 52 49 45 44 41 39 37 34 33 32 30 27 26 25 24 23 23 25 29 34 37 37 36 34 33 32 32 32 33 34 35 37 37 36 36 36 36 36 36 36 36 35 35 35 35 35 35 34 32 30 28 27 28 28
54 57 63 66 64 62 59 57 58 60 62 64 65 65 66 65 64 65 64 61 58 57 57 57 59 60 59 58 57 54 50 46 44 43 44 42 39 37 36 36 36 33 31 29 27 25 24 23 24 27 32 36 37 35 33 33 33 33 33 34 33 33 32 31 31 31 31 31 32 32 31 31 31 32 33 32 32 31 29 28 28 28 28 27 27
65 68 72 74 70 67 66 65 64 63 64 68 71 73 71 68 66 67 67 65 64 63 62 61 63 63 61 58 55 52 49 47 46 47 48 46 42 41 42 43 42 39 37 37 35 32 29 27 27 29 33 36 37 36 35 34 34 33 33 33 32 31 29 29 30 30 30 31 31 30 30 30 30 30 29 29 28 27 26 27 28 29 30 30 30
67 71 72 73 71 70 70 71 69 67 67 68 72 76 75 72 70 70 70 70 69 67 66 67 66 63 59 55 53 52 52 52 52 53 53 50 48 47 49 49 49 48 45 44 42 39 35 32 31 32 35 36 37 37 36 35 34 33 33 32 31 31 30 31 31 31 31 31 30 30 30 29 29 28 27 27 28 29 30 30 32 34 34 34 33
63 67 68 69 71 71 72 72 71 69 68 70 74 76 75 76 77 76 76 75 72 68 67 66 64 61 56 54 53 53 55 56 57 57 56 54 52 52 53 53 52 49 46 45 44 42 39 37 36 36 37 37 37 36 36 35 35 34 33 33 33 32 32 32 32 32 32 31 30 29 28 27 27 27 28 30 32 34 34 34 36 38 38 37 36
60 62 63 66 70 72 73 73 74 73 73 75 78 79 77 78 78 77 77 77 75 70 67 65 63 61 59 56 55 56 56 57 56 56 55 54 53 55 56 54 50 46 43 42 42 42 41 40 39 38 38 38 37 37 36 36 36 36 35 35 34 34 34 34 34 33 32 31 29 28 27 27 29 31 33 33 34 34 35 36 38 39 39 37 37
60 60 60 63 67 71 73 74 74 74 74 73 75 78 80 80 79 76 74 75 75 71 68 65 64 63 62 60 59 59 59 58 57 56 55 55 57 58 57 53 48 45 43 43 44 43 43 42 40 39 39 39 38 38 37 37 36 36 36 35 35 35 36 35 34 33 31 30 29 28 28 30 31 32 33 33 34 35 36 36 36 35 33 32 31
61 60 60 62 64 67 69 72 73 73 74 73 73 74 77 78 79 78 75 76 77 73 68 66 65 65 64 64 63 62 61 59 57 56 56 57 60 59 55 51 49 47 45 45 46 45 44 43 42 41 41 41 40 40 39 39 38 38 37 36 35 34 33 32 31 30 28 27 26 27 29 31 32 32 33 34 35 34 33 32 31 30 30 30 31
58 58 58 59 61 63 65 66 67 69 72 74 76 77 75 74 75 76 77 78 79 75 71 69 69 69 70 70 68 65 62 60 60 59 60 61 62 59 55 53 53 52 48 46 46 45 44 43 43 42 41 41 40 39 39 38 37 35 33 32 31 31 30 29 27 26 25 25 26 28 30 31 31 32 33 33 33 32 32 32 32 33 33 33 34
55 55 55 55 56 58 59 59 61 65 70 73 75 77 77 74 73 74 76 78 79 77 76 74 74 76 77 76 73 70 67 65 65 64 63 62 61 59 56 55 54 52 48 46 45 43 42 40 39 38 37 36 35 33 32 31 29 27 26 25 26 26 25 24 24 24 25 27 29 30 30 31 32 33 33 32 31 31 31 32 32 32 33 33 33
46 46 48 51 53 54 55 55 58 63 68 71 71 73 75 75 74 75 76 77 78 79 80 81 81 80 80 78 76 72 69 67 67 66 64 63 62 59 56 54 52 49 45 44 43 41 38 35 32 30 28 28 29 28 28 27 26 26 26 25 24 24 24 24 25 27 29 30 31 32 32 33 33 33 32 30 30 29 30 29 29 29 30 31 31
38 38 39 43 50 54 56 56 56 60 65 68 71 72 71 71 72 74 75 77 78 80 82 84 83 82 81 80 77 73 70 68 68 67 66 64 60 56 54 53 50 48 45 43 40 36 32 29 28 26 26 27 28 28 28 27 28 28 28 27 26 26 27 29 30 32 33 34 34 33 32 31 31 29 29 29 29 30 30 31 31 32 33 34 34
35 34 33 34 40 47 54 57 56 56 58 61 65 68 69 68 69 71 73 75 77 79 82 83 83 84 83 81 77 72 70 68 66 65 63 59 56 53 52 51 49 48 45 40 35 30 27 28 29 29 29 29 28 28 27 27 28 29 30 30 31 32 34 35 35 36 35 34 32 31 29 29 29 30 30 31 33 34 36 37 38 39 40 40 41
29 29 30 30 30 34 41 48 52 54 54 54 54 59 64 68 74 78 79 79 79 80 81 81 82 86 85 80 74 71 69 67 64 61 57 54 51 49 48 47 47 46 42 35 29 28 28 31 32 31 29 28 28 28 28 29 30 32 34 36 38 39 38 37 35 33 32 30 30 30 30 31 32 34 35 37 39 40 41 43 44 45 46 47 48
27 27 27 28 28 28 30 34 40 46 50 52 52 53 55 59 65 71 76 81 84 85 85 83 82 84 84 79 74 70 67 64 60 56 51 49 49 48 47 46 46 44 38 33 31 31 33 34 34 31 30 29 30 31 32 34 36 38 41 42 41 38 34 32 30 30 30 31 32 33 34 36 37 39 41 42 44 46 48 51 53 54 56 59 61
26 26 27 27 28 29 30 31 32 35 39 44 49 51 51 52 54 56 61 68 72 74 75 76 77 80 82 82 78 73 67 61 55 49 47 47 48 48 47 46 44 40 37 35 34 35 35 36 35 33 33 34 35 37 38 41 44 44 43 39 34 31 29 29 30 32 33 35 36 37 39 40 42 44 47 50 53 56 60 63 67 70 74 78 81
25 25 26 27 28 30 32 33 34 34 36 38 39 41 45 49 52 53 56 60 63 66 71 75 79 82 85 84 80 72 62 55 49 46 46 46 46 46 45 43 41 39 38 37 37 37 38 39 39 39 39 41 43 44 46 47 45 41 36 31 29 29 29 31 32 35 36 38 40 42 44 46 49 53 58 63 67 71 74 80 83 87 91 93 93
27 25 26 27 29 30 32 34 35 37 40 42 43 40 40 44 48 52 56 59 59 63 68 72 75 79 81 79 75 67 57 50 48 48 48 46 45 45 44 41 40 40 40 40 39 40 42 44 46 45 46 47 49 49 47 43 37 32 29 29 28 28 30 32 35 37 39 41 44 47 51 55 60 67 72 77 80 85 89 92 94 95 95 95 95
31 28 27 29 31 32 34 35 36 39 41 46 49 48 47 48 50 53 58 61 58 59 66 71 74 79 83 82 74 65 56 52 50 49 46 43 44 45 44 40 40 42 42 41 41 43 46 48 49 49 49 50 49 45 40 34 31 30 30 28 28 28 30 34 37 39 42 46 51 57 63 69 74 79 83 87 91 94 95 95 95 95 95 93 92
42 37 34 33 33 35 37 37 38 40 41 45 49 51 52 55 56 56 59 61 57 59 70 79 83 87 89 82 72 63 57 54 52 49 44 42 43 44 43 42 44 44 43 44 47 49 50 51 51 51 51 48 41 35 32 31 32 31 29 27 27 29 31 35 39 42 47 54 62 69 75 80 83 87 91 95 97 96 95 94 94 94 92 91 91
54 51 48 45 43 43 44 44 45 44 42 43 45 47 50 56 60 63 66 65 61 64 73 79 83 86 82 73 67 63 59 55 54 52 46 42 41 43 45 46 48 48 49 51 53 54 54 54 53 50 44 37 33 32 34 34 32 30 27 27 28 29 32 37 41 47 54 64 73 79 84 87 90 93 97 98 97 94 94 93 93 92 91 90 91
63 60 59 57 55 52 51 52 53 52 50 48 46 46 50 56 61 65 69 72 73 80 85 85 84 82 76 68 65 63 59 57 57 52 43 38 40 45 47 50 52 54 55 56 56 57 59 56 50 41 35 32 34 37 36 33 30 29 28 28 28 29 34 40 45 52 63 74 82 86 90 92 94 97 98 97 95 93 93 93 93 93 94 93 91
78 75 70 66 61 59 57 55 55 56 56 53 50 47 49 54 59 62 65 70 77 84 87 86 84 78 71 66 64 61 59 57 52 43 37 38 44 48 51 55 58 58 57 57 60 62 58 49 39 34 34 38 40 39 34 30 30 30 29 28 28 31 37 43 47 56 70 82 89 92 94 96 97 99 98 95 95 94 94 94 94 95 95 93 91
88 89 88 81 73 66 61 59 58 58 56 53 52 50 47 49 53 57 62 72 81 85 83 81 77 70 63 62 61 59 54 49 42 39 40 45 50 54 58 60 60 57 58 61 62 56 45 37 35 38 43 44 40 34 30 30 31 30 28 28 29 32 37 43 48 57 73 86 93 94 96 97 98 98 96 94 95 96 94 94 95 94 92 92 91
85 91 97 96 89 79 68 62 60 58 54 50 50 50 47 46 47 50 56 66 78 84 84 82 77 67 60 58 56 51 46 45 45 44 46 51 58 62 62 60 59 59 61 59 52 42 37 39 44 48 49 43 35 30 30 31 31 29 27 27 29 32 37 43 48 57 73 87 93 94 95 97 96 96 96 95 96 96 95 94 95 93 90 90 92
76 83 93 100 99 92 79 68 61 59 55 50 48 48 48 46 45 46 49 55 67 79 86 85 79 69 62 57 52 47 47 51 56 56 57 62 66 64 61 61 64 63 56 47 41 41 44 48 51 51 46 37 31 29 30 30 29 28 27 27 29 32 36 41 47 55 70 85 92 93 94 95 95 96 97 98 98 97 95 92 91 90 90 91 93
72 78 89 97 99 97 91 81 70 64 59 54 50 49 47 43 42 47 52 55 60 69 78 80 76 69 63 57 53 51 51 52 55 62 67 68 65 64 66 70 67 56 45 41 44 48 51 51 52 48 40 33 30 31 30 28 27 27 26 26 28 30 34 40 45 52 64 80 90 93 93 93 94 94 96 97 97 94 91 88 87 88 89 92 94
71 77 88 95 97 98 96 91 81 74 68 61 54 49 47 47 55 67 75 74 70 68 71 72 69 64 59 55 52 52 53 54 58 66 71 69 68 71 74 70 58 47 43 45 49 50 50 50 49 42 35 32 32 31 28 26 25 26 25 25 25 29 33 38 42 47 56 71 83 89 91 92 93 92 93 95 95 91 88 87 88 88 88 90 92
69 73 82 91 98 100 98 91 82 77 72 64 56 53 56 63 73 82 88 88 84 78 72 65 59 57 56 55 55 59 63 66 69 72 73 73 76 77 72 61 52 47 46 47 49 49 49 48 43 36 33 34 34 30 28 26 24 24 25 24 23 27 32 37 40 44 49 59 73 84 88 90 91 93 93 93 92 91 90 89 87 85 86 88 88
69 70 73 79 87 89 87 84 80 74 68 61 56 55 59 68 77 84 87 89 90 88 79 68 63 67 70 70 69 72 75 75 76 77 78 79 79 73 64 57 54 51 48 47 48 48 47 44 38 35 35 36 32 29 28 26 24 23 24 22 22 25 30 34 38 42 45 50 60 73 82 86 88 90 91 91 90 92 94 92 87 83 83 85 87
72 71 71 74 77 78 76 76 76 73 68 65 60 54 55 63 75 83 86 87 90 92 85 75 75 85 90 86 81 80 80 81 83 83 81 78 72 65 59 57 56 53 48 47 48 47 44 40 36 36 37 36 32 29 29 26 24 24 23 21 22 25 29 31 35 39 42 45 50 59 70 79 83 85 87 88 88 91 94 94 91 86 83 83 86
81 78 76 77 80 81 80 78 77 76 76 75 71 66 64 70 77 83 86 88 87 86 81 80 87 96 97 93 88 88 89 91 90 85 77 71 65 60 59 58 56 53 51 48 46 45 42 38 37 38 38 36 32 31 29 27 26 25 23 22 22 25 28 30 32 35 40 43 45 48 55 64 73 79 82 83 85 88 91 92 93 91 87 85 87
89 88 86 86 86 87 86 82 80 80 83 84 82 80 78 77 76 78 82 83 81 79 81 87 94 97 96 94 95 95 95 93 86 78 70 64 59 58 58 57 55 53 49 45 43 43 41 39 39 39 38 35 33 32 31 29 27 27 26 23 23 25 28 30 31 32 35 39 41 43 45 50 58 67 74 78 82 85 88 89 92 93 92 90 89
90 91 92 93 95 95 95 92 90 89 89 88 85 82 80 78 76 77 81 83 84 86 90 93 95 96 96 98 97 95 90 84 76 68 62 58 57 58 59 56 53 49 44 39 39 41 40 38 38 37 36 35 34 33 31 31 30 29 28 25 23 24 28 30 31 32 33 35 37 40 41 42 45 52 61 68 76 83 85 87 88 91 93 94 93
89 89 91 94 96 97 98 98 98 98 97 96 93 90 89 87 87 88 90 92 94 95 96 96 97 97 96 93 88 83 78 71 65 61 59 58 58 58 57 53 50 45 39 35 36 38 38 36 35 34 33 33 33 32 32 32 32 32 31 29 26 24 26 29 31 31 32 33 34 36 39 40 41 43 48 54 64 76 83 85 85 86 90 94 96
88 88 90 92 94 95 96 97 97 98 98 98 98 97 96 97 97 97 97 98 98 98 96 94 92 88 84 79 75 70 66 62 60 59 59 59 57 55 53 50 47 43 38 34 35 36 35 34 34 33 32 33 32 32 32 33 33 34 34 33 30 26 25 28 31 31 31 31 33 34 36 38 40 41 42 44 50 62 74 81 83 84 85 89 93